Regional Weather Roundup
Issued by NWS Cleveland, OH

Home | Current Version | Previous Version | Graphics & Text | Print | Product List | Glossary On
Versions: 1 2 3 4 5 6 7 8 9 10 11 12 13 14 15 16 17 18 19 20 21 22 23 24 25 26 27 28 29 30 31 32 33 34 35 36 37 38 39 40 41 42 43 44 45 46 47 48 49 50
000
ASUS41 KCLE 271000
RWRCLE
OHIO REGIONAL WEATHER ROUNDUP
NATIONAL WEATHER SERVICE WILMINGTON, OH
600 AM EDT SUN MAY 27 2018

NOTE: "FAIR" INDICATES FEW OR NO CLOUDS BELOW 12,000 FEET WITH NO
SIGNIFICANT WEATHER AND/OR OBSTRUCTIONS TO VISIBILITY.

OHZ001>008-015>018-024>027-034-035-043-044-271100-
   NORTHWEST OHIO

CITY           SKY/WX    TMP DP  RH WIND       PRES   REMARKS
DEFIANCE       FOG       64  64 100 CALM      29.85R VSB 1/4
FINDLAY        FAIR      66  65  96 S6        29.85R FOG
TOLEDO EXPRESS FOG       65  65 100 CALM      29.85R VSB 1/4
TOLEDO EXEC    FAIR      67  65  93 CALM      29.86R FOG
LIMA           FAIR      66  66 100 S3        29.86R FOG
$$

OHZ009>014-019>023-028>033-038-089-271100-
   NORTHEAST OHIO

CITY           SKY/WX    TMP DP  RH WIND       PRES   REMARKS
CLE-HOPKINS    CLOUDY    67  66  97 CALM      29.89R
CLE-LAKEFRONT  CLOUDY    67  64  90 CALM      29.87R
CUY CO. ARPT   NOT AVBL
LORAIN-ELYRIA  FOG       63  59  87 NE7       29.88R VSB 1/2
ASHTABULA      CLOUDY    66  66 100 S5        29.91R
AKRON-CANTON   FOG       67  64  90 SW3       29.90R VSB 1
WOOSTER        CLOUDY    67  66  97 S3        29.90R FOG
MANSFIELD      FAIR      64  64 100 S3        29.89R FOG
YOUNGSTOWN     CLOUDY    67  66  97 SE5       29.91R FOG
$$

OHZ042-051>053-060>062-070>072-077>081-271100-
  SOUTHWEST OHIO

CITY           SKY/WX    TMP DP  RH WIND       PRES   REMARKS
CINC-COVINGTON MOCLDY    67  65  93 S3        29.88R
CINC-LUNKEN    FOG       66  66 100 CALM      29.88R VSB 1/2
HAMILTON       FAIR      68  68 100 CALM      29.89R
DAYTON         NOT AVBL
WRIGHT-PAT AFB FAIR      67  65  91 CALM      29.88R
DAYTON GENERAL FAIR      69  65  86 CALM      29.88R
WILMINGTON     FAIR      65  65 100 SW5       29.88S
$$

OHZ036-037-039>041-045>050-054>059-063>069-073>076-082>088-271100-
  CENTRAL AND SOUTHEAST OHIO

CITY           SKY/WX    TMP DP  RH WIND       PRES   REMARKS
COLUMBUS       MOCLDY    68  66  93 S5        29.88R
OSU AIRPORT    FAIR      67  66  97 SW5       29.87R
BOLTON FIELD   NOT AVBL
RICKENBACK AFB NOT AVBL
NEWARK         FAIR      67  66  97 CALM      29.88R FOG
MARION         FOG       67  66  97 SW5       29.88R VSB 1/4
LANCASTER      FAIR      65  65 100 CALM      29.89R
ZANESVILLE     FAIR      66  64  93 S3        29.89R
NEW PHILLY     CLOUDY    68  67  96 CALM      29.90R
$$




USA.gov is the U.S. government's official web portal to all federal, state and local government web resources and services.